When you browse on this site, cookies collect data to enhance your experience and personalize the content and advertising you see.
Visit our Privacy Policy to learn more. By continuing to use the site, you agree to this use of cookies and data.
  • In Hungary
  • List of Countries
  • For 7 days
  • Water Temperature
  • Satellite Maps
  • Weather Map
  • News
  • Weather Widgets
  • user-avatar
    Login

    Hourly Weather Herstal

    Today, 18 November, Sunday

    Time Temperature Precipitation Wind Pressure Humidity
    00:00 +1°C° 0 mm 3 mps 758 mmHg 69%
    01:00 +1°C° 0 mm 3 mps 758 mmHg 70%
    02:00 +1°C° 0 mm 3 mps 758 mmHg 70%
    03:00 +1°C° 0 mm 3 mps 758 mmHg 70%
    04:00 +1°C° 0 mm 3 mps 758 mmHg 70%
    05:00 +1°C° 0 mm 3 mps 758 mmHg 69%
    06:00 -1°C° 0 mm 4 mps 758 mmHg 69%
    07:00 0°C° 0 mm 4 mps 757 mmHg 65%
    08:00 +1°C° 0 mm 4 mps 757 mmHg 61%
    09:00 +1°C° 0 mm 4 mps 757 mmHg 57%
    10:00 +4°C° 0 mm 4 mps 757 mmHg 54%
    11:00 +5°C° 0 mm 4 mps 757 mmHg 51%
    12:00 +6°C° 0 mm 4 mps 756 mmHg 46%
    13:00 +5°C° 0 mm 4 mps 756 mmHg 48%
    14:00 +5°C° 0 mm 4 mps 755 mmHg 49%
    15:00 +4°C° 0 mm 4 mps 755 mmHg 51%
    16:00 +3°C° 0 mm 4 mps 755 mmHg 50%
    17:00 +3°C° 0 mm 4 mps 755 mmHg 50%
    18:00 +1°C° 0 mm 4 mps 755 mmHg 50%
    19:00 0°C° 0 mm 4 mps 755 mmHg 50%
    20:00 0°C° 0 mm 4 mps 755 mmHg 50%
    21:00 -1°C° 0 mm 4 mps 755 mmHg 49%
    22:00 -1°C° 0 mm 4 mps 754 mmHg 57%
    23:00 -1°C° 0 mm 4 mps 754 mmHg 64%

    Tomorrow, 19 November, Monday

    Time Temperature Precipitation Wind Pressure Humidity
    00:00 -1°C° 0 mm 4 mps 754 mmHg 71%
    01:00 -1°C° 0 mm 4 mps 753 mmHg 77%
    02:00 -1°C° 0 mm 4 mps 753 mmHg 83%
    03:00 -1°C° 0 mm 4 mps 753 mmHg 89%
    04:00 0°C° 0 mm 4 mps 753 mmHg 87%
    05:00 +1°C° 0 mm 5 mps 752 mmHg 85%
    06:00 +1°C° 0 mm 5 mps 752 mmHg 83%
    07:00 +2°C° 0 mm 5 mps 751 mmHg 80%
    08:00 +2°C° 0 mm 6 mps 751 mmHg 78%
    09:00 +2°C° 0 mm 6 mps 751 mmHg 76%
    10:00 +3°C° 0 mm 7 mps 750 mmHg 71%
    11:00 +3°C° 0 mm 7 mps 750 mmHg 67%
    12:00 +4°C° 0 mm 7 mps 749 mmHg 63%
    13:00 +4°C° 0.1 mm 7 mps 749 mmHg 64%
    14:00 +3°C° 0.1 mm 6 mps 749 mmHg 64%
    15:00 +3°C° 0.1 mm 6 mps 748 mmHg 65%
    16:00 +2°C° 0 mm 6 mps 748 mmHg 67%
    17:00 +2°C° 0 mm 6 mps 748 mmHg 70%
    18:00 +1°C° 0 mm 6 mps 747 mmHg 72%
    19:00 +1°C° 0 mm 6 mps 747 mmHg 72%
    20:00 +1°C° 0 mm 6 mps 747 mmHg 73%
    21:00 -1°C° 0 mm 6 mps 747 mmHg 73%
    22:00 -1°C° 0 mm 6 mps 746 mmHg 72%
    23:00 -1°C° 0 mm 6 mps 746 mmHg 71%

    Day after tomorrow, 20 November, Tuesday

    Time Temperature Precipitation Wind Pressure Humidity
    00:00 -1°C° 0 mm 6 mps 746 mmHg 70%
    01:00 -1°C° 0 mm 6 mps 745 mmHg 71%
    02:00 -1°C° 0 mm 6 mps 745 mmHg 71%
    03:00 -1°C° 0 mm 6 mps 744 mmHg 72%
    04:00 -1°C° 0 mm 6 mps 744 mmHg 72%
    05:00 -2°C° 0 mm 6 mps 744 mmHg 73%
    06:00 -2°C° 0 mm 6 mps 743 mmHg 73%
    07:00 -1°C° 0 mm 6 mps 743 mmHg 71%
    08:00 -1°C° 0 mm 6 mps 743 mmHg 68%
    09:00 +1°C° 0 mm 6 mps 743 mmHg 66%
    10:00 +1°C° 0 mm 6 mps 743 mmHg 65%
    11:00 +2°C° 0 mm 6 mps 742 mmHg 64%
    12:00 +2°C° 0 mm 6 mps 742 mmHg 63%
    13:00 +2°C° 0 mm 6 mps 742 mmHg 64%
    14:00 +2°C° 0 mm 5 mps 742 mmHg 66%
    15:00 +2°C° 0 mm 5 mps 741 mmHg 68%
    16:00 +1°C° 0 mm 5 mps 742 mmHg 72%
    17:00 +1°C° 0 mm 5 mps 742 mmHg 76%
    18:00 0°C° 0 mm 4 mps 742 mmHg 80%
    19:00 0°C° 0 mm 4 mps 742 mmHg 81%
    20:00 0°C° 0 mm 4 mps 742 mmHg 81%
    21:00 0°C° 0 mm 4 mps 743 mmHg 81%
    22:00 0°C° 0 mm 4 mps 743 mmHg 83%
    23:00 0°C° 0 mm 4 mps 743 mmHg 84%

    21 November, Wednesday

    Time Temperature Precipitation Wind Pressure Humidity
    00:00 +1°C° 0 mm 3 mps 743 mmHg 85%
    01:00 +1°C° 0 mm 3 mps 743 mmHg 83%
    02:00 +2°C° 0 mm 3 mps 743 mmHg 82%
    03:00 +2°C° 0 mm 3 mps 744 mmHg 80%
    04:00 +2°C° 0 mm 3 mps 744 mmHg 81%
    05:00 +2°C° 0 mm 3 mps 744 mmHg 81%
    06:00 +1°C° 0 mm 3 mps 745 mmHg 82%
    07:00 +2°C° 0 mm 3 mps 745 mmHg 80%
    08:00 +3°C° 0 mm 3 mps 746 mmHg 77%
    09:00 +3°C° 0 mm 3 mps 746 mmHg 75%
    10:00 +4°C° 0 mm 3 mps 746 mmHg 73%
    11:00 +6°C° 0 mm 2 mps 747 mmHg 71%
    12:00 +6°C° 0 mm 2 mps 747 mmHg 70%
    13:00 +6°C° 0 mm 2 mps 747 mmHg 72%
    14:00 +6°C° 0 mm 2 mps 747 mmHg 75%
    15:00 +5°C° 0 mm 2 mps 747 mmHg 77%
    16:00 +5°C° 0 mm 2 mps 748 mmHg 79%
    17:00 +4°C° 0 mm 2 mps 748 mmHg 82%
    18:00 +4°C° 0 mm 2 mps 749 mmHg 84%
    19:00 +3°C° 0 mm 2 mps 749 mmHg 85%
    20:00 +3°C° 0 mm 2 mps 749 mmHg 87%
    21:00 +3°C° 0 mm 2 mps 749 mmHg 88%
    22:00 +2°C° 0 mm 2 mps 749 mmHg 89%
    23:00 +2°C° 0 mm 2 mps 750 mmHg 90%

    22 November, Thursday

    Time Temperature Precipitation Wind Pressure Humidity
    00:00 +3°C° 0 mm 1 mps 750 mmHg 91%
    01:00 +3°C° 0 mm 1 mps 750 mmHg 91%
    02:00 +3°C° 0 mm 1 mps 750 mmHg 91%
    03:00 +3°C° 0 mm 1 mps 750 mmHg 92%
    04:00 +3°C° 0 mm 1 mps 750 mmHg 92%
    05:00 +3°C° 0 mm 1 mps 750 mmHg 92%
    06:00 +3°C° 0 mm 1 mps 751 mmHg 92%
    07:00 +4°C° 0 mm 1 mps 751 mmHg 90%
    08:00 +4°C° 0 mm 1 mps 751 mmHg 87%
    09:00 +5°C° 0 mm 1 mps 751 mmHg 85%
    10:00 +6°C° 0 mm 1 mps 751 mmHg 80%
    11:00 +7°C° 0 mm 1 mps 751 mmHg 76%
    12:00 +8°C° 0 mm 1 mps 752 mmHg 72%
    13:00 +8°C° 0 mm 1 mps 752 mmHg 75%
    14:00 +7°C° 0 mm 1 mps 752 mmHg 78%
    15:00 +7°C° 0 mm 1 mps 752 mmHg 82%
    16:00 +6°C° 0 mm 1 mps 752 mmHg 85%
    17:00 +5°C° 0 mm 1 mps 752 mmHg 88%
    18:00 +3°C° 0 mm 2 mps 752 mmHg 91%
    19:00 +3°C° 0 mm 2 mps 753 mmHg 91%
    20:00 +3°C° 0 mm 2 mps 753 mmHg 91%
    21:00 +2°C° 0 mm 2 mps 753 mmHg 91%
    22:00 +2°C° 0 mm 2 mps 753 mmHg 91%
    23:00 +2°C° 0 mm 2 mps 753 mmHg 91%

    23 November, Friday

    Time Temperature Precipitation Wind Pressure Humidity
    00:00 +3°C° 0 mm 1 mps 753 mmHg 91%
    01:00 +2°C° 0 mm 2 mps 753 mmHg 90%
    02:00 +2°C° 0 mm 2 mps 753 mmHg 90%
    03:00 +2°C° 0 mm 2 mps 753 mmHg 90%
    04:00 +2°C° 0 mm 2 mps 753 mmHg 89%
    05:00 +2°C° 0 mm 2 mps 753 mmHg 89%
    06:00 +2°C° 0 mm 2 mps 753 mmHg 88%
    07:00 +3°C° 0 mm 2 mps 753 mmHg 85%
    08:00 +4°C° 0 mm 2 mps 753 mmHg 81%
    09:00 +5°C° 0 mm 2 mps 753 mmHg 77%
    10:00 +6°C° 0 mm 2 mps 753 mmHg 75%
    11:00 +7°C° 0 mm 2 mps 753 mmHg 73%
    12:00 +8°C° 0 mm 2 mps 753 mmHg 70%
    13:00 +9°C° 0.1 mm 1 mps 753 mmHg 75%
    14:00 +8°C° 0.1 mm 1 mps 752 mmHg 79%
    15:00 +8°C° 0.1 mm 1 mps 752 mmHg 83%
    16:00 +7°C° 0 mm 1 mps 752 mmHg 86%
    17:00 +6°C° 0 mm 1 mps 752 mmHg 88%
    18:00 +5°C° 0 mm 1 mps 752 mmHg 91%
    19:00 +5°C° 0 mm 1 mps 752 mmHg 91%
    20:00 +5°C° 0 mm 1 mps 752 mmHg 91%
    21:00 +4°C° 0 mm 1 mps 751 mmHg 91%
    22:00 +4°C° 0 mm 1 mps 751 mmHg 92%
    23:00 +4°C° 0 mm 1 mps 751 mmHg 92%
    Show more